Regional Weather Roundup
Issued by NWS

Home | Current Version | Previous Version | Graphics & Text | Print | Product List | Glossary On
Versions: 1 2 3 4 5 6 7 8 9 10 11 12 13 14 15 16 17 18 19 20 21 22 23 24 25 26 27 28 29 30 31 32 33 34 35 36 37 38 39 40 41 42 43 44 45 46 47 48 49 50
000
ASUS43 KLOT 011106
RWRIL

ILLINOIS REGIONAL WEATHER ROUNDUP
NATIONAL WEATHER SERVICE CHICAGO/ROMEOVILLE IL
500 AM CST SUN MAR 01 2015

NOTE: "FAIR" INDICATES FEW OR NO CLOUDS BELOW 12,000 FEET WITH NO
SIGNIFICANT WEATHER AND/OR OBSTRUCTIONS TO VISIBILITY.

* THESE STATIONS ARE NOT UNDER NWS QUALITY CONTROL. THEY ALSO MAY NOT
  REPORT WEATHER SUCH AS PRECIPITATION OR FOG.

ILZ001-002-007-009-015-016-024-011200-
NORTHWEST ILLINOIS

CITY           SKY/WX    TMP DP  RH WIND       PRES   REMARKS
MOLINE         FOG        9   6  88 CALM      30.38S VSB 3/4
STERLING*      CLOUDY   N/A N/A N/A CALM      30.38S
SAVANNA*       LGT SNOW  14  11  88 CALM      30.39S
$$

ILZ003-004-008-010-011-017-018-011200-
NORTH CENTRAL ILLINOIS

CITY           SKY/WX    TMP DP  RH WIND       PRES   REMARKS
ROCKFORD       LGT SNOW  13   9  84 CALM      30.39S FOG
FREEPORT*      LGT SNOW  11   8  87 CALM      30.39S
ROCHELLE*      SNOW       5   2  88 CALM      30.38S VSB<1/4
DE KALB*       FOG       12  10  89 CALM      30.37S VSB<1/4
PERU*          CLOUDY    14  11  90 NE3       30.39S FOG
$$

ILZ005-006-012>014-019>023-011200-
NORTHEAST ILLINOIS

CITY           SKY/WX    TMP DP  RH WIND       PRES   REMARKS
CHICAGO-OHARE  CLOUDY    14  10  84 CALM      30.38S FOG
CHICAGO-MIDWAY CLOUDY    19  14  81 CALM      30.39S
AURORA         FOG        7   4  87 CALM      30.38S VSB 1/4
LANSING*       CLOUDY    17  15  91 CALM      30.39S
JOLIET*        MOCLDY    15  13  91 CALM      30.39S FOG
WAUKEGAN       CLOUDY     8   6  92 CALM      30.38S FOG
DUPAGE AIRPORT CLOUDY    14  12  92 CALM      30.37S FOG
KANKAKEE*      CLOUDY    20  18  91 CALM      30.39R
WHEELING       MOCLDY    11   9  92 CALM      30.40F FOG
MORRIS*        MOCLDY    15  14  96 CALM      30.39R FOG
ROMEOVILLE*    MOCLDY    16  15  93 CALM      30.38S FOG
NORTHERLY ISL    N/A     19  15  84 CALM        N/A
$$

LMZ740>746-011200-
SOUTHERN LAKE MICHIGAN

STATION/POSITION SKY/WX   TEMP    WIND        PRES    VSBY  WAVE
                          AIR SEA DIR/SP/G                  HT/PER
                          (F)     (DEG/KT/KT) (MB)    (MI)  (FT/S)
WAUKEGAN HARBOR            16     260/ 10/ 15   N/A
HARRISON CRIB              20     210/  3/  4   N/A
BURNHAM HARBOR             19      CALM  /  4   N/A
CALUMET HARBOR             18      CALM  /  1 1027.7S
MICHIGAN CITY              17      30/  2/  4   N/A
$$

ILZ025>027-034>036-040-047-049-050-058-095>099-011200-
WEST-CENTRAL ILLINOIS

CITY           SKY/WX    TMP DP  RH WIND       PRES   REMARKS
QUINCY         LGT SNOW  21  18  88 E3        30.36R FOG
GALESBURG*     CLOUDY    19  17  95 CALM      30.36F
MACOMB*        LGT RAIN  19  19  96 CALM      30.39R
JACKSONVILLE*  LGT SNOW  24  22  91 CALM      30.37R VSB 1
PITTSFIELD*    LGT SNOW  23  21  92 CALM      30.37R
$$

ILZ028>032-037-038-041>044-048-051>054-059>061-011200-
CENTRAL ILLINOIS

CITY           SKY/WX    TMP DP  RH WIND       PRES   REMARKS
PONTIAC        LGT SNOW  21  19  93 CALM      30.39R
BLOOMINGTON    LGT SNOW  21  20  96 CALM      30.37S FOG
DECATUR        LGT SNOW  22  19  89 E3        30.37R FOG
PEORIA         LGT SNOW  22  18  85 NE3       30.38S FOG
LACON*         CLOUDY    18  16  90 CALM      30.39R
LINCOLN*       LGT SNOW  23  21  93 CALM      30.39S
SPRINGFIELD    LGT SNOW  23  20  88 E3        30.37S VSB 3/4
TAYLORVILLE    LGT SNOW  23  21  93 CALM      30.37R VSB 1
$$

ILZ033-039-045-046-055>057-062-063-011200-
EAST-CENTRAL ILLINOIS

CITY           SKY/WX    TMP DP  RH WIND       PRES   REMARKS
CHAMPAIGN      LGT SNOW  22  19  89 E6        30.37R VSB 3/4 WCI  14
DANVILLE*      LGT SNOW  21  19  94 CALM      30.35R
RANTOUL*       LGT SNOW  23  21  93 CALM      30.36S
MATTOON        LGT SNOW  24  22  91 CALM      30.36R FOG
PARIS*         LGT SNOW  23  22  96 CALM      30.38R
$$

ILZ079-100>102-011200-
SOUTHWEST ILLINOIS

CITY           SKY/WX    TMP DP  RH WIND       PRES   REMARKS
ALTON          LGT SNOW  26  24  95 CALM      30.37S
BELLEVILLE     MIX PCPN  26  26  99 N2        30.36S FOG
CAHOKIA*       CLOUDY    27  25  92 CALM      30.37S FOG
SPARTA*        LGT SNOW  28  27  96 CALM      30.37R
$$

ILZ064>066-069>071-074>076-080>082-084>086-088>090-092>094-011200-
SOUTH-CENTRAL ILLINOIS

CITY           SKY/WX    TMP DP  RH WIND       PRES   REMARKS
CARBONDALE     FRZ RAIN  31  28  89 N6        30.36R WCI  25
CAIRO*         FLURRIES  34  28  78 NE3       30.38R
EFFINGHAM*     LGT SNOW  26  23  89 CALM      30.39R VSB 1
MARION         MIX PCPN  32  28  86 CALM      30.36R
MT. VERNON     CLOUDY    28  25  86 CALM      30.37R
CENTRALIA*     LGT SNOW  27  25  93 CALM      30.36S
SALEM*         LGT SNOW  28  26  92 CALM      30.37S
METROPOLIS*    LGT RAIN  33  29  85 CALM      30.37R
$$

ILZ067-068-072-073-078-083-087-091-011200-
SOUTHEAST ILLINOIS

CITY           SKY/WX    TMP DP  RH WIND       PRES   REMARKS
LAWRENCEVILLE  LGT SNOW  29  27  92 NE7       30.38R VSB 1   WCI  22
FLORA*         LGT SNOW  26  26  99 N3        30.38R
FAIRFIELD*     LGT SNOW  31  30  96 CALM      30.37R
HARRISBURG*    MIX PCPN  32  27  83 SE7       30.37S WCI  26
ROBINSON*      LGT SNOW  27  27  99 CALM      30.40R
CARMI*         LGT RAIN  33  31  91 SE3       30.36S
$$

ABBREVIATIONS USED IN REMARKS
   TC - TEMPERATURE IN CELSIUS
  WCI - WIND CHILL INDEX
   HX - HEAT INDEX
  VSB - VISIBILITY
$$



USA.gov is the U.S. government's official web portal to all federal, state and local government web resources and services.